Location: Newark
(49.8969°N, 3.3422°E)
Time: 04:53:34
(UTC+00:00)

Vanguard 3 - All Passes

Search period start: 22 January 2020 00:00
Search period end: 01 February 2020 00:00
Orbit: 507 x 3263 km, 33.4° (Epoch: 21 January)

Date Brightness Start Highest point End Pass type
(mag) Time Alt. Az. Time Alt. Az. Time Alt. Az.
22 Jan - 15:21:23 10° S 15:31:17 16° SE 15:40:34 10° ESE daylight
22 Jan - 17:28:34 10° SSW 17:44:30 33° SSE 17:57:09 10° ESE visible
22 Jan - 19:41:56 10° WSW 19:58:12 40° S 20:09:15 10° ESE visible
22 Jan - 21:58:02 10° WSW 22:10:45 31° SSW 22:19:05 10° SE visible
23 Jan - 00:17:37 10° WSW 00:21:10 12° SW 00:24:13 10° SSW visible
23 Jan - 16:14:31 10° SSW 16:28:59 26° SSE 16:41:46 10° E daylight
23 Jan - 18:25:45 10° SW 18:42:46 39° S 18:55:23 10° ESE visible
23 Jan - 20:40:48 10° WSW 20:56:12 39° SSW 21:06:24 10° SE visible
23 Jan - 22:58:06 10° WSW 23:07:48 22° SW 23:14:41 10° S visible
24 Jan - 15:02:16 10° S 15:13:44 19° SE 15:24:47 10° ESE daylight
24 Jan - 17:10:26 10° SW 17:27:04 36° SSE 17:40:50 10° ESE visible
24 Jan - 19:23:59 10° WSW 19:41:03 42° S 19:53:03 10° ESE visible
24 Jan - 21:40:15 10° W 21:53:49 32° SSW 22:02:54 10° SSE visible
25 Jan - 00:00:34 10° WSW 00:04:17 12° SW 00:07:32 10° SSW visible
25 Jan - 13:54:43 10° SE 13:58:57 11° SE 14:03:11 10° ESE daylight
25 Jan - 15:56:17 10° SSW 16:11:27 29° SSE 16:25:23 10° E daylight
25 Jan - 18:07:49 10° SW 18:25:25 42° S 18:39:03 10° ESE visible
25 Jan - 20:22:56 10° WSW 20:39:07 39° SSW 20:50:10 10° SE visible
25 Jan - 22:40:30 10° W 22:50:51 22° SW 22:58:19 10° S visible
26 Jan - 14:43:43 10° S 14:56:08 22° SE 15:08:32 10° E daylight
26 Jan - 16:52:32 10° SW 17:09:34 38° SSE 17:24:21 10° ESE visible
26 Jan - 19:06:09 10° WSW 19:23:46 44° S 19:36:42 10° ESE visible
26 Jan - 21:22:29 10° W 21:36:44 32° SSW 21:46:35 10° SSE visible
26 Jan - 23:43:38 10° WSW 23:47:18 11° SW 23:50:32 10° SW visible
27 Jan - 13:34:15 10° SSE 13:41:20 13° SE 13:48:40 10° ESE daylight
27 Jan - 15:38:21 10° SSW 15:53:49 32° SSE 16:08:46 10° E daylight
27 Jan - 17:50:05 10° SW 18:07:57 44° S 18:22:33 10° ESE visible
27 Jan - 20:05:09 10° WSW 20:21:53 40° SSW 20:33:48 10° SE visible
27 Jan - 22:22:57 10° W 22:33:46 22° SW 22:41:47 10° S visible
28 Jan - 14:25:36 10° S 14:38:28 24° SE 14:51:57 10° E daylight
28 Jan - 16:34:52 10° SW 16:51:59 40° SSE 17:07:41 10° ESE visible
28 Jan - 18:48:27 10° WSW 19:06:23 44° S 19:20:14 10° ESE visible
28 Jan - 21:04:46 10° W 21:19:32 32° SSW 21:30:07 10° SSE visible
28 Jan - 23:27:01 10° WSW 23:30:11 11° SW 23:33:04 10° SW visible
29 Jan - 13:15:16 10° SSE 13:23:43 15° SE 13:32:47 10° ESE daylight
29 Jan - 15:20:43 10° SSW 15:36:10 34° SSE 15:51:57 10° E daylight
29 Jan - 17:32:30 10° WSW 17:50:26 45° S 18:05:56 10° ESE visible
29 Jan - 19:47:28 10° WSW 20:04:33 40° SSW 20:17:18 10° SE visible
29 Jan - 22:05:26 10° W 22:16:32 21° SW 22:25:03 10° S visible
30 Jan - 14:07:51 10° S 14:20:48 26° SE 14:35:06 10° E daylight
30 Jan - 16:17:24 10° SW 16:34:21 42° SSE 16:50:51 10° ESE daylight
30 Jan - 18:30:54 10° WSW 18:48:54 45° S 19:03:37 10° ESE visible
30 Jan - 20:47:08 10° W 21:02:12 31° SSW 21:13:29 10° SSE visible
30 Jan - 23:11:11 10° WSW 23:12:57 10° SW 23:14:37 10° SW visible
31 Jan - 12:56:59 10° SSE 13:06:06 17° SE 13:16:19 10° E daylight
31 Jan - 15:03:19 10° SSW 15:18:30 36° SSE 15:34:58 10° E daylight
31 Jan - 17:15:06 10° WSW 17:32:50 46° S 17:49:08 10° ESE visible
31 Jan - 19:29:54 10° W 19:47:05 39° SSW 20:00:38 10° SE visible
31 Jan - 21:48:02 10° W 21:59:12 20° SW 22:08:06 10° S visible
